Lapse_Rate
6.6 6.6 6.5 6.5 6.5 6.5 6.7 6.8 6.9 6.9 7.0 7.1 7.0 7.1 7.0 7.0 7.1 7.0 6.7 6.7 6.4 6.3 6.0 5.9 6.0 6.0 5.9 5.9 5.8 5.6 5.2 5.4 5.9 5.6 5.6 5.5 6.5 6.6 6.5 6.3 6.2 5.8 5.6 5.9 6.0
6.5 6.5 6.5 6.6 6.6 6.7 6.7 6.9 7.0 7.1 7.1 7.2 7.2 7.2 7.2 7.0 6.9 6.8 6.7 6.5 6.4 6.2 5.9 5.8 5.8 5.8 5.7 5.8 5.6 5.5 5.4 5.5 5.7 5.8 5.6 5.7 5.6 6.5 6.6 6.5 6.4 6.2 6.2 6.3 6.3
6.4 6.5 6.5 6.6 6.7 6.8 6.9 6.9 6.9 6.9 7.0 7.0 7.1 7.0 7.0 6.9 6.8 6.6 6.7 6.6 6.5 6.3 5.9 5.7 5.7 5.8 5.7 5.5 5.4 5.5 5.8 6.0 5.7 5.7 5.7 5.6 5.8 6.0 6.4 6.4 6.5 6.6 6.5 6.3 6.6
6.2 6.3 6.4 6.4 6.6 6.6 6.7 6.7 6.9 6.9 6.9 6.9 7.0 6.9 6.8 6.8 6.5 6.4 6.3 6.1 6.0 5.8 5.9 5.7 5.6 5.6 5.7 5.8 5.8 5.5 5.9 5.9 6.1 5.3 5.4 5.6 5.7 6.0 5.9 6.2 6.2 6.2 6.2 6.3 6.6
6.1 6.2 6.3 6.3 6.4 6.4 6.5 6.6 6.7 6.8 6.8 6.8 6.8 6.8 6.6 6.5 6.4 6.2 5.8 5.7 5.6 5.4 5.4 5.4 5.4 5.4 5.5 5.6 5.5 5.5 5.9 5.9 5.9 5.7 5.6 5.4 5.6 5.7 5.7 5.9 6.1 6.3 6.3 6.4 6.6
6.1 6.1 6.2 6.3 6.3 6.4 6.5 6.6 6.6 6.6 6.7 6.7 6.7 6.6 6.4 6.1 6.0 5.8 5.5 5.3 5.3 5.3 5.2 5.2 5.4 5.4 5.1 5.4 5.3 5.4 5.6 5.6 5.5 5.7 5.7 5.5 5.5 5.5 5.6 5.7 5.9 6.0 6.3 6.5 6.7
6.0 6.1 6.0 6.1 6.3 6.3 6.3 6.4 6.3 6.3 6.3 6.3 6.3 6.2 6.1 5.7 5.5 5.2 4.9 5.0 5.1 5.2 5.3 5.3 5.2 5.3 5.2 5.3 5.3 5.4 5.4 5.4 5.7 5.6 5.4 5.9 5.7 5.7 5.6 5.5 5.9 6.0 6.3 6.8 7.0
6.0 6.1 6.1 6.1 6.2 6.2 6.1 6.1 6.0 6.1 6.1 6.2 6.1 5.8 5.5 5.4 5.1 4.8 4.8 4.9 5.0 5.1 5.2 5.2 5.3 5.3 5.2 5.1 5.1 5.5 5.5 5.3 5.5 5.8 5.7 5.8 6.0 6.0 6.0 5.9 5.9 6.2 6.5 6.7 6.7
6.0 6.1 6.2 6.3 6.2 6.1 6.0 6.0 6.1 6.1 6.1 6.1 5.9 5.7 5.4 5.0 4.8 4.7 4.6 4.9 5.1 5.3 5.3 5.2 5.3 5.2 5.4 5.3 5.3 5.3 5.4 5.6 5.8 6.1 6.3 6.1 5.9 6.0 6.1 6.2 6.3 6.5 6.5 6.7 6.7
6.0 6.1 6.3 6.3 6.3 6.1 6.0 5.9 5.9 6.0 6.0 5.8 5.5 5.5 5.1 5.0 4.6 4.5 4.7 5.0 5.2 5.3 5.4 5.4 5.3 5.4 5.5 5.7 5.2 6.1 6.2 6.3 6.5 6.7 6.8 6.8 6.5 6.5 6.3 6.4 6.6 6.8 6.8 6.8 6.8
6.0 6.1 6.3 6.3 6.3 6.1 5.9 5.9 6.0 6.0 5.8 5.5 5.5 5.2 4.7 4.8 4.6 4.9 5.0 5.1 5.4 5.5 5.6 5.6 5.6 5.9 6.8 6.9 6.7 6.9 6.8 6.9 7.1 7.2 7.3 7.2 7.1 6.9 6.9 6.8 6.8 6.8 6.8 6.8 6.7
5.7 5.9 6.1 6.2 6.2 5.9 5.7 5.9 5.9 5.9 5.8 5.4 4.9 4.6 4.6 4.7 5.0 5.3 5.4 5.5 5.7 5.8 5.9 5.9 6.1 6.9 6.5 6.6 6.7 6.9 6.9 7.0 7.1 7.4 7.5 7.4 7.3 7.0 7.0 7.0 6.8 6.8 6.8 6.8 6.7
5.7 6.0 6.1 6.3 6.2 6.1 6.0 6.1 6.1 6.1 5.8 5.1 4.6 4.7 4.8 5.2 5.3 5.6 5.7 5.8 5.8 6.0 6.2 6.1 6.8 7.0 7.0 7.0 7.1 7.3 7.1 7.1 7.3 7.5 7.2 7.5 7.1 6.9 6.7 6.7 6.7 6.5 6.4 6.4 6.5
5.7 6.1 6.3 6.2 6.1 6.1 6.0 6.1 6.2 6.0 5.6 5.0 4.7 4.8 5.1 5.3 5.4 5.7 6.0 6.0 5.9 6.1 6.5 6.5 6.9 7.2 7.3 7.2 7.3 7.3 7.5 7.5 7.3 7.1 6.9 6.9 6.2 6.3 6.2 6.3 6.3 6.3 6.1 6.1 6.1
5.6 6.1 6.4 6.4 6.3 6.2 6.1 6.0 6.0 5.7 4.3 5.0 4.9 5.2 5.4 5.6 5.7 5.6 5.8 5.7 5.8 6.1 6.2 6.7 7.0 7.1 7.2 7.2 7.4 7.2 7.4 7.3 7.2 7.2 6.4 6.4 6.7 6.2 5.9 5.8 5.8 5.9 6.0 6.0 6.1
5.9 6.4 6.5 6.7 6.6 6.4 6.1 6.0 5.9 5.5 3.5 5.4 5.3 5.6 5.9 5.9 5.6 5.7 5.7 5.7 5.9 6.3 6.3 6.4 6.7 6.9 7.1 7.3 7.2 6.9 6.8 6.8 6.8 7.0 6.6 6.8 6.7 6.2 6.0 6.0 5.9 5.9 5.9 6.0 6.1
6.2 6.6 6.9 7.1 6.7 6.2 6.0 5.8 5.6 5.2 5.8 5.4 5.7 6.1 6.1 5.8 5.7 5.9 6.0 6.0 6.2 6.2 6.2 6.4 6.6 6.9 7.0 7.1 7.0 6.7 6.7 6.8 6.7 6.8 6.9 6.9 6.8 6.1 5.8 5.8 5.6 5.6 5.8 6.0 6.1
6.3 6.9 7.1 6.9 6.3 5.9 5.7 5.9 5.7 6.0 6.1 6.0 6.2 6.1 6.0 5.8 5.7 5.8 5.6 5.7 5.9 6.2 6.3 6.3 6.5 6.5 6.4 6.6 6.9 6.7 6.9 7.0 6.7 6.2 5.4 6.4 6.6 5.7 5.7 5.5 5.5 5.3 5.4 5.5 5.7
6.7 6.9 6.8 6.3 5.6 5.6 5.7 5.9 6.4 5.9 6.2 6.6 6.6 6.1 6.0 5.9 5.8 5.8 5.7 6.0 6.2 6.3 6.3 6.2 6.3 6.3 6.3 6.4 6.6 6.8 6.8 6.8 6.7 6.3 5.9 5.3 4.7 4.7 4.9 5.0 5.1 5.1 5.2 5.3 5.4
6.7 6.5 6.2 5.6 5.5 5.7 5.9 6.4 6.3 6.6 6.8 6.9 6.8 6.6 6.4 6.3 6.1 6.1 6.0 6.1 6.0 6.2 6.1 5.9 6.1 6.1 6.2 6.3 6.3 6.6 6.8 6.8 6.9 7.0 6.7 4.0 4.3 4.9 5.0 4.8 4.8 4.9 5.0 5.0 5.2
6.3 6.1 5.7 5.6 5.7 6.2 6.5 6.7 6.7 6.7 6.9 6.9 6.9 6.8 6.6 6.4 6.4 6.3 6.3 6.3 6.1 6.1 6.0 5.9 5.8 6.1 6.2 6.1 6.2 6.4 6.6 6.8 6.7 6.6 6.0 3.3 4.6 5.0 4.9 4.7 4.8 4.9 4.9 5.0 5.1
5.9 5.9 5.7 5.8 6.4 6.7 7.0 6.9 6.8 6.9 6.9 6.9 6.8 6.8 6.7 6.6 6.5 6.4 6.3 6.3 6.1 6.1 6.0 6.0 5.9 6.0 6.0 6.0 6.2 6.3 6.4 6.5 6.6 6.2 6.0 5.5 4.6 4.9 4.6 4.6 4.8 4.8 4.9 5.0 5.0
5.8 5.8 5.9 6.5 7.1 7.0 6.8 6.6 6.7 6.7 6.7 6.8 6.9 6.8 6.8 6.8 6.7 6.6 6.4 6.2 6.1 6.0 6.0 5.9 6.0 6.0 5.9 6.0 6.1 6.1 6.3 6.4 6.5 6.2 6.0 5.8 5.0 5.2 4.7 4.7 4.8 4.8 4.9 5.0 5.0
5.8 5.8 6.2 6.8 6.8 6.5 6.4 6.4 6.4 6.5 6.7 6.8 6.8 6.9 6.9 6.8 6.8 6.7 6.5 6.3 6.2 6.1 6.0 6.0 6.1 6.1 5.3 5.9 5.9 5.8 5.9 6.0 6.2 6.3 6.0 6.2 6.0 5.8 5.3 5.0 4.9 4.8 5.0 5.0 4.9
5.8 5.8 6.1 6.3 6.2 5.9 6.0 6.0 6.3 6.5 6.7 6.8 6.9 6.9 6.9 6.9 6.8 6.8 6.6 6.5 6.3 6.3 6.3 6.2 6.2 6.1 6.0 6.0 5.9 5.9 5.9 5.9 6.0 6.1 6.1 6.0 6.2 6.4 5.7 5.4 5.1 5.0 5.1 5.0 4.9
5.7 5.6 5.9 6.0 5.8 5.8 5.9 5.9 6.3 6.5 6.8 7.0 7.1 7.1 7.0 7.0 6.8 6.7 6.6 6.5 6.4 6.4 6.5 6.3 6.3 6.2 6.2 6.1 6.0 6.0 6.0 5.9 6.0 6.1 6.1 6.2 6.1 5.7 5.2 5.2 5.1 5.2 5.2 5.1 5.0
5.9 5.8 5.2 5.5 6.1 6.0 6.2 6.3 6.4 6.7 7.0 6.8 7.0 7.2 7.2 7.1 7.0 6.9 6.8 6.6 6.6 6.6 6.6 6.6 6.4 6.3 6.4 6.3 6.3 6.2 6.0 6.0 6.0 6.0 5.9 5.8 5.7 5.5 5.3 5.3 5.4 5.3 5.2 5.3 5.4
Wind_Speed
19 17 16 16 15 15 14 12 10 10 9 8 8 5 4 6 6 2 5 7 4 9 6 6 4 3 3 3 3 4 2 13 10 7 3 1 4 2 1 4 2 1 1 4 10
18 18 17 17 16 16 15 13 11 10 10 7 7 2 4 4 0 5 10 9 8 7 5 6 5 4 2 3 3 4 5 8 4 6 3 2 5 3 3 3 3 1 1 4 9
20 19 19 19 18 18 16 13 12 10 9 7 5 1 1 2 1 4 8 9 9 9 5 4 5 6 4 2 4 4 8 3 2 4 4 2 3 2 4 5 5 4 4 6 7
22 21 20 19 19 19 17 14 13 11 8 5 4 2 2 3 1 3 9 7 10 9 4 4 3 5 5 7 6 4 7 5 3 2 2 2 0 1 3 2 6 7 6 6 8
24 23 21 20 19 18 16 14 13 10 7 4 1 3 3 1 4 3 4 5 6 4 4 4 4 5 5 4 3 5 3 4 6 7 4 4 4 2 4 7 6 8 8 9 8
25 23 21 19 18 16 15 14 11 10 4 3 4 6 2 1 1 2 3 3 3 3 3 5 5 6 4 5 7 4 7 8 5 6 5 5 2 4 6 7 8 8 9 8 9
26 23 20 19 17 15 15 12 9 5 2 5 6 2 1 2 1 3 2 2 3 4 4 4 4 3 2 3 5 3 4 5 5 6 5 7 4 4 6 4 7 8 7 8 7
28 25 21 17 14 13 13 10 5 1 3 5 7 2 3 2 0 0 2 1 1 4 3 4 4 5 3 3 6 2 3 6 3 8 5 9 9 4 12 4 7 7 7 7 7
26 21 17 13 12 13 11 8 2 3 4 7 2 1 1 3 2 1 1 1 1 1 2 1 4 3 2 3 5 2 4 5 3 8 3 4 4 7 11 8 8 7 6 7 7
25 18 16 15 14 13 9 3 3 4 2 1 0 1 2 0 2 3 2 1 1 2 2 3 4 2 2 4 8 6 4 4 6 4 5 4 4 6 9 10 7 7 7 7 7
28 20 17 15 14 9 2 3 3 2 1 3 2 2 1 2 2 6 3 2 2 2 4 2 3 7 13 6 4 4 2 5 2 3 6 3 5 5 6 8 8 7 7 7 6
28 21 19 19 5 3 4 3 0 1 1 3 3 0 2 1 2 7 6 2 1 4 2 2 6 9 5 6 6 5 6 5 1 4 5 3 4 4 6 5 4 5 6 6 5
30 21 18 14 4 5 2 1 2 1 2 1 2 3 2 2 3 5 5 2 1 2 5 6 3 2 7 5 7 6 7 6 4 4 6 7 3 3 3 4 5 6 4 5 5
31 21 15 9 1 2 1 3 0 0 3 2 1 2 3 2 4 3 3 0 1 2 3 5 4 4 4 5 6 7 6 8 8 4 3 2 4 4 4 2 5 6 7 6 6
31 18 10 6 3 1 2 0 3 2 3 3 3 3 5 4 1 6 3 5 1 3 2 4 4 3 4 1 2 2 1 5 5 10 2 6 1 1 6 3 1 4 5 6 6
33 14 4 2 2 1 2 3 3 4 6 2 3 4 4 6 4 4 7 7 1 3 1 1 1 3 3 3 1 3 2 4 3 2 7 8 6 3 5 5 4 1 3 5 5
32 7 2 2 1 2 3 3 3 4 2 2 3 4 2 4 4 6 4 6 3 5 5 4 2 4 4 2 2 3 4 2 3 4 3 3 8 3 1 2 5 5 3 4 4
27 5 5 4 7 5 3 4 4 3 3 2 2 2 3 6 3 5 3 4 4 3 2 3 4 4 7 2 1 2 3 2 5 4 3 2 4 2 4 4 8 6 2 6 5
14 2 2 5 2 2 4 1 2 3 2 2 1 2 2 2 3 4 4 0 3 2 3 3 3 0 2 3 2 2 4 2 2 2 3 1 5 5 4 6 6 6 6 5 5
2 2 2 12 2 4 4 3 2 3 2 1 3 3 2 4 3 3 2 3 4 2 3 2 3 2 2 3 2 2 2 1 2 3 4 2 3 3 5 6 6 6 4 4 5
3 3 2 7 3 5 3 2 3 3 3 3 2 2 2 2 1 1 2 3 1 4 4 4 3 5 1 5 2 4 3 3 1 2 2 2 5 5 6 4 6 5 5 4 4
3 3 3 2 4 2 2 2 2 2 5 4 3 2 1 1 2 1 1 1 2 2 2 1 3 1 5 3 1 2 1 2 1 2 3 3 3 1 3 4 5 5 5 3 4
3 3 4 4 3 3 1 2 2 3 4 3 3 3 3 2 2 2 2 2 4 4 1 1 1 3 6 4 1 4 3 1 1 2 0 2 3 3 3 5 4 4 2 2 4
3 4 4 4 1 2 4 1 2 3 3 3 3 4 3 3 3 2 3 4 4 5 7 2 2 4 4 5 1 3 3 2 2 2 2 3 3 3 4 5 3 1 2 2 3
4 1 1 4 4 5 3 4 2 3 3 5 3 4 2 3 3 2 3 4 3 9 4 3 1 1 2 3 2 2 1 1 2 2 3 4 4 5 7 6 3 2 1 4 5
3 2 2 2 3 5 6 6 4 3 4 4 4 3 2 2 5 3 2 2 2 5 4 4 1 1 3 1 2 1 3 5 3 2 3 1 2 3 3 2 2 2 2 3 3
0 2 2 4 4 3 3 4 4 2 4 4 3 2 5 3 2 2 3 2 2 1 4 3 2 3 3 4 2 3 3 0 1 2 5 2 5 4 4 5 3 3 3 4 4
Wind_Direction
347 344 343 337 336 329 326 322 320 314 308 305 300 302 321 299 294 23 246 222 204 252 86 90 69 100 86 135 125 130 214 238 226 161 211 250 214 251 62 138 73 50 208 309 135
349 346 341 340 334 329 326 325 319 313 305 301 305 226 305 305 11 250 244 239 232 213 100 145 156 120 113 189 193 165 199 229 191 180 221 222 171 236 178 193 172 222 348 77 128
350 346 341 339 336 333 328 321 316 307 301 301 297 349 333 83 246 250 265 219 255 132 96 144 120 133 173 153 207 201 234 221 200 216 207 221 208 176 177 241 237 213 165 140 147
347 343 338 335 334 332 326 321 320 310 299 293 287 41 113 98 263 273 24 138 91 88 84 103 107 144 181 197 205 226 235 222 250 204 90 230 0 201 196 307 301 278 150 128 124
344 339 336 332 326 325 327 326 321 314 300 268 134 151 108 104 249 263 51 53 62 77 151 158 156 150 190 199 194 236 226 205 224 235 255 344 292 276 9 352 31 84 87 109 100
341 337 333 325 319 319 327 325 323 318 274 202 174 145 134 167 292 122 99 76 104 124 173 150 201 210 222 217 176 225 217 235 238 243 232 205 252 150 26 0 41 66 85 81 87
340 335 327 323 321 321 327 326 330 340 172 164 163 134 114 191 10 146 142 181 166 159 177 206 186 177 166 287 230 247 271 300 239 201 228 139 193 88 329 355 64 65 70 83 81
341 337 333 329 323 321 323 323 329 42 147 158 155 68 232 245 210 17 139 354 192 197 198 181 155 189 187 281 350 255 173 233 258 174 233 159 223 17 338 115 84 73 69 72 60
343 340 338 333 324 321 316 301 211 154 156 141 78 141 314 339 22 332 143 263 277 173 222 98 134 176 134 150 346 318 228 218 266 189 126 168 172 358 360 88 62 59 71 78 71
345 340 334 328 326 326 331 168 112 104 65 87 120 45 341 347 322 337 14 355 205 113 58 102 56 131 62 125 219 225 220 235 212 187 57 88 88 28 24 70 67 53 55 68 65
345 342 339 331 322 329 56 63 20 313 68 215 197 192 240 321 57 354 358 5 118 108 186 156 147 210 212 202 178 152 193 229 252 58 89 58 95 37 36 51 54 51 46 47 49
346 338 338 337 348 85 77 90 140 302 245 198 253 160 122 74 83 350 3 57 151 220 148 33 231 235 204 201 206 192 195 224 95 33 94 116 79 52 40 55 42 59 53 43 34
345 336 337 343 131 43 70 165 270 185 158 243 123 74 349 37 95 346 24 315 237 250 208 190 217 350 185 190 192 215 206 196 186 109 69 129 109 159 62 65 57 44 37 43 37
342 332 335 334 350 184 100 320 355 27 93 224 190 2 359 14 80 4 27 238 333 282 310 234 307 252 200 216 180 232 203 206 142 146 212 189 227 203 156 95 40 30 30 8 4
340 327 331 28 161 88 296 153 104 50 351 5 39 336 351 67 352 17 11 19 339 303 79 260 349 344 220 132 174 250 233 175 188 176 109 190 101 173 138 184 148 27 30 2 353
340 321 334 32 55 53 131 107 59 59 252 137 30 19 28 22 34 326 20 31 42 304 192 278 57 35 305 306 273 344 106 59 67 126 218 188 181 216 185 191 152 52 19 12 345
345 319 32 95 277 155 110 56 37 164 30 49 4 16 31 3 49 23 47 19 37 38 10 339 20 340 10 290 161 91 125 178 194 192 214 322 183 214 254 144 129 125 73 45 26
348 4 13 52 311 144 70 62 210 92 74 37 34 316 87 15 56 24 62 28 26 52 47 35 324 3 339 41 344 82 163 199 197 188 204 22 180 162 220 127 115 98 92 70 47
342 327 55 335 114 55 78 94 343 46 31 16 350 83 77 32 47 73 34 298 238 34 140 33 265 277 315 347 332 145 216 198 119 115 90 111 332 338 143 117 105 100 76 54 48
348 15 360 335 54 58 73 76 66 40 17 46 72 39 55 1 42 55 11 283 334 38 165 244 337 309 37 326 40 327 1 161 191 206 216 345 269 226 179 142 124 107 93 63 48
36 24 283 357 64 52 81 77 85 62 22 36 96 79 85 50 88 43 222 284 311 327 149 143 102 293 7 12 352 347 5 7 353 10 170 148 262 217 181 134 135 121 112 94 61
8 354 319 27 47 44 66 5 54 24 24 49 84 86 92 149 58 99 35 236 313 300 345 37 140 286 224 279 167 69 47 317 55 326 52 139 280 287 185 126 116 94 92 93 81
2 276 326 54 62 11 354 61 71 47 40 39 66 49 34 65 81 53 60 50 21 24 155 275 338 2 347 359 36 54 346 299 81 82 289 130 254 333 152 106 97 110 120 92 108
22 357 339 37 43 32 1 40 80 42 69 55 70 61 53 50 31 350 24 27 0 350 18 44 92 152 188 218 195 358 355 20 101 94 191 214 177 237 167 145 150 108 115 174 135
27 331 154 330 -0 352 330 351 58 42 51 33 64 54 108 56 19 42 15 349 30 359 26 81 147 134 256 233 194 200 359 78 88 203 142 266 184 219 175 162 163 175 165 148 166
354 343 40 312 327 347 357 11 36 40 44 13 66 21 78 97 168 248 88 48 23 336 26 356 309 82 350 265 210 94 79 103 114 150 69 186 301 206 121 83 191 193 192 184 161
53 51 73 328 347 20 4 357 35 28 40 59 48 61 50 35 143 191 159 126 187 91 356 58 76 47 295 341 344 29 297 232 234 197 155 132 224 162 160 199 213 230 215 211 168